"Pseudo-MPEC" for P11JzPt
Created 2023 Sep 21 15:22:22 UT using Find_Orb
Click here for an explanation of pseudo-MPECs
Astrometry: P11JzPt* C2023 09 15C8gHM/J5n(S`-]BXPts:sfCbSta3/
Astrometryx0!?Y)N]B@q\M
F51 P11JzPt C2023 09 15.$_^y3xLyuhRpO.]8,mnKwSd;u*gX1u6qZ5*Xa]TO5$YC;K).?.5
F51 P11JzPt C2023 09 15aS26]yHHt_?.N#A6`u?OSRrnXUVwcEn$xZ;53=^-Wp+[7AAf:q?G
F51 P11JzPt C2023 09 15C3%SCVi$ug^j#q-;Ydr)oS@jO,^%_wldP5uG$SBl82Icsdv76%,D
F51 P11JzPt C2023 09 15EPM+5M0t$9/8hVpAxb3dew7)MOtS[Rfk8UrH)v%B+qd;g,m*?WIp
F51 P11JzPt C2023 09 15ISDxMQ3k)y6uT.x
redacted;^^#ZDNE_;QSEJdoA3ee)yNyxdO-L
F51 P11JzPt C2023 09 15Mkd*%.XJHsUUssBG-DfL'\KU5JsdWE7/A'ry,tMaOFgHhh/fT\G6
F51 P11JzPt KC2023 09 15-L1u6Bt(x]IZU#fOPMXPo[r]D88_(ha.
clickS6yP0'NG*.#-t,7
474 P11JzPt KC2023 09 15?gq9TDQF%6OGQ]TA\*+=YSHA0/p!r5Bii\w43Dm$Mn/dHQ!S\fi@
474 P11JzPt KC2023 09 15ayPWp+O+Mru/pcwnVUAJ_Lo`%,%EOE-OOdEZnP.f%q6hH*x#%veO
474 P11JzPt KC2023 09 15kK.Q*.'*;0YYUnM_Vn?M*-P5
here`-nb)YkO+TZ5b;s#KS6Z!d@W
474 P11JzPt 3C2023 09 17X_^F4+,BIKY:Tn5.0P'gZ$\[BVloQpea%g[@Ah0.Sa5@=JDS_f0R
T14 P11JzPt 3C2023 09 17@Y)7OHmRdoWQ*QL^t]lMx\m;`lHyX2QSl4DA7
for7M!,+,66Xudo
T14 P11JzPt 3C2023 09 17A7mW_.q+Wq=CHp57:WNQ^)7C5(ZmWDcR6V0O?'ZP
explanationR
T14 Station data: (474) Mount John Observatory, Lake Tekapo (S43.987385 E170.464960) New Zealand. Observers A. C. Gilmore, P. M. Kilmartin. Measurer P. M. Kilmartin. 1.0-m f/7.7 reflector + CCD. (F51) Pan-STARRS 1, Haleakala (N20.707234 W156.255910) US/Hawaii. Observers J. Bulger, T. Lowe, A. Schultz, M. Willman. Measurers K. Chambers, S. Chastel, T. de Boer, L. Denneau, J. Fairlamb, H. Flewelling, M. Huber, C.-C. Lin, E. Magnier, Y. Ramanjooloo, R. Wainscoat, R. Weryk. 1.8-m Ritchey-Chrétien + CCD. (T14) Mauna Kea-UH/Tholen NEO Follow-Up (CFHT) (N19.825252 W155.468876) US/Hawaii. Observer R. Weryk. 3.6-m Canada-France-Hawaii Telescope. Orbital elements: P11JzPt Perihelion 2023 Oct 26.38675 +/- 0.0549 TT = 9:16:55 (JD 2460243.88675) Epoch 2023 Sep 17.0 TT = JDT 2460204.5 Earth MOID: 0.0118 AutoNEOCP M 343.68856249 +/- 0.09 (J2000 ecliptic) n 0.41413512 +/- 0.00293 Peri. 21.74863 +/- 0.34 a 1.78254844 +/- 0.00841 Node 15.23262 +/- 0.20 e 0.4439373 +/- 0.00313 Incl. 7.84143 +/- 0.06 P 2.38/869.27d H 25.09 G 0.15 U 8.8 q 0.99120856 +/- 0.00102 Q 2.57388832 +/- 0.0177 From 14 observations 2023 Sept. 15-17; mean residual 0".12
Residuals in arcseconds: 230915 F51 .06+ .00 230915 F51 .02- .06+ 230915 474 .31- .08- 230915 F51 .08- .04+ 230915 F51 .16+ .08+ 230917 T14 .00 .02+ 230915 F51 .01+ .01+ 230915 474 .03+ .29+ 230917 T14 .00 .01+ 230915 F51 .03+ .03- 230915 474 .04+ .11- 230917 T14 .00 .04- 230915 F51 .17- .18- 230915 474 .28+ .10- Ephemerides (geocentric): Date (UTC) HH RA Dec delta r elong mag " sig PA ---- -------- ------------ ------------ ------ ------ ----- --- -------- 2023 09 21 15 00 21 17.430 -36 59 30.36 .07706 1.0668 143.2 21.1 7.49 71 2023 09 21 16 00 21 28.856 -36 58 17.33 .07687 1.0666 143.2 21.1 7.66 71 2023 09 21 17 00 21 40.331 -36 57 03.71 .07667 1.0664 143.2 21.1 7.83 71 2023 09 21 18 00 21 51.857 -36 55 49.52 .07648 1.0663 143.2 21.1 8.01 71 2023 09 21 19 00 22 03.432 -36 54 34.74 .07629 1.0661 143.2 21.1 8.19 71 2023 09 21 20 00 22 15.059 -36 53 19.38 .07610 1.0659 143.2 21.1 8.37 70 2023 09 21 21 00 22 26.736 -36 52 03.43 .07590 1.0658 143.2 21.1 8.55 70 2023 09 21 22 00 22 38.464 -36 50 46.88 .07571 1.0656 143.2 21.0 8.74 70 2023 09 21 23 00 22 50.243 -36 49 29.72 .07552 1.0654 143.2 21.0 8.93 70 2023 09 22 00 00 23 02.075 -36 48 11.97 .07532 1.0653 143.2 21.0 9.12 70 2023 09 22 01 00 23 13.958 -36 46 53.60 .07513 1.0651 143.2 21.0 9.31 70 2023 09 22 02 00 23 25.894 -36 45 34.62 .07494 1.0649 143.2 21.0 9.51 70 2023 09 22 03 00 23 37.883 -36 44 15.01 .07475 1.0647 143.2 21.0 9.71 70 2023 09 22 04 00 23 49.925 -36 42 54.79 .07455 1.0646 143.2 21.0 9.92 70 2023 09 22 05 00 24 02.020 -36 41 33.93 .07436 1.0644 143.2 21.0 10.1 70 2023 09 22 06 00 24 14.169 -36 40 12.44 .07417 1.0642 143.2 21.0 10.3 69 2023 09 22 07 00 24 26.372 -36 38 50.32 .07398 1.0641 143.2 21.0 10.6 69 2023 09 22 08 00 24 38.629 -36 37 27.55 .07379 1.0639 143.2 21.0 10.8 69 2023 09 22 09 00 24 50.941 -36 36 04.13 .07359 1.0637 143.2 21.0 11.0 69 2023 09 22 10 00 25 03.308 -36 34 40.05 .07340 1.0636 143.3 21.0 11.2 69 2023 09 22 11 00 25 15.731 -36 33 15.32 .07321 1.0634 143.3 21.0 11.4 69 2023 09 22 12 00 25 28.209 -36 31 49.93 .07302 1.0632 143.3 21.0 11.7 69 2023 09 22 13 00 25 40.744 -36 30 23.86 .07283 1.0631 143.3 21.0 11.9 69 2023 09 22 14 00 25 53.334 -36 28 57.13 .07264 1.0629 143.3 21.0 12.1 69 2023 09 22 15 00 26 05.982 -36 27 29.71 .07244 1.0627 143.3 20.9 12.4 69 2023 09 22 16 00 26 18.687 -36 26 01.61 .07225 1.0626 143.3 20.9 12.6 69 2023 09 22 17 00 26 31.449 -36 24 32.82 .07206 1.0624 143.3 20.9 12.9 68 2023 09 22 18 00 26 44.269 -36 23 03.33 .07187 1.0622 143.3 20.9 13.1 68 2023 09 22 19 00 26 57.148 -36 21 33.14 .07168 1.0621 143.3 20.9 13.4 68 2023 09 22 20 00 27 10.085 -36 20 02.25 .07149 1.0619 143.3 20.9 13.7 68 2023 09 22 21 00 27 23.081 -36 18 30.64 .07130 1.0618 143.3 20.9 13.9 68 2023 09 22 22 00 27 36.136 -36 16 58.32 .07111 1.0616 143.3 20.9 14.2 68 2023 09 22 23 00 27 49.251 -36 15 25.27 .07092 1.0614 143.3 20.9 14.5 68 2023 09 23 00 00 28 02.426 -36 13 51.49 .07073 1.0613 143.3 20.9 14.7 68 2023 09 23 01 00 28 15.661 -36 12 16.98 .07054 1.0611 143.3 20.9 15.0 68 2023 09 23 02 00 28 28.958 -36 10 41.72 .07035 1.0609 143.3 20.9 15.3 68 2023 09 23 03 00 28 42.315 -36 09 05.72 .07015 1.0608 143.4 20.9 15.6 68 2023 09 23 04 00 28 55.735 -36 07 28.97 .06996 1.0606 143.4 20.9 15.9 68 2023 09 23 05 00 29 09.216 -36 05 51.46 .06977 1.0604 143.4 20.9 16.2 67 2023 09 23 06 00 29 22.760 -36 04 13.18 .06958 1.0603 143.4 20.9 16.5 67 2023 09 23 07 00 29 36.366 -36 02 34.13 .06939 1.0601 143.4 20.8 16.8 67 2023 09 23 08 00 29 50.036 -36 00 54.30 .06920 1.0599 143.4 20.8 17.1 67 2023 09 23 09 00 30 03.769 -35 59 13.69 .06901 1.0598 143.4 20.8 17.4 67 2023 09 23 10 00 30 17.566 -35 57 32.29 .06883 1.0596 143.4 20.8 17.7 67 2023 09 23 11 00 30 31.428 -35 55 50.09 .06864 1.0595 143.4 20.8 18.1 67 2023 09 23 12 00 30 45.354 -35 54 07.08 .06845 1.0593 143.4 20.8 18.4 67 2023 09 23 13 00 30 59.346 -35 52 23.27 .06826 1.0591 143.4 20.8 18.7 67 2023 09 23 14 00 31 13.403 -35 50 38.64 .06807 1.0590 143.4 20.8 19.1 67